Other Public Products
Issued by NWS Grand Forks, ND

Home | Current Version | Previous Version | Text Only | Print | Product List | Glossary On
Versions: 1 2 3 4 5 6 7 8 9 10 11 12 13 14 15 16 17 18 19 20 21 22 23 24 25 26 27 28 29 30 31 32 33 34 35 36 37 38 39 40 41 42 43 44 45 46 47 48 49 50
000
FPUS83 KFGF 260210
OPUFGF
PRAIRIE TO PINES WEATHER ROUNDUP
NATIONAL WEATHER SERVICE EASTERN NORTH DAKOTA/GRAND FORKS ND
900 PM CDT SUN SEP 25 2016

 **SATELLITE DATA USED TO AUGMENT SKY COVER AT AUTOMATED STATIONS**
 *****  WEATHER ACROSS EASTERN NORTH DAKOTA  *****

CITY           SKY/WX    TMP DP  RH WIND       PRES   REMARKS
GRAND FORKS    CLOUDY    56  45  66 NW16G24   29.93R
GRAND FORKS AF MOCLDY    57  42  57 NW17G29   29.94R
GRAND CITY NWS NOT AVBL
BUXTON         NOT AVBL
DEVILS LAKE    PTCLDY    54  38  54 NW13      30.03R
FARGO          CLOUDY    55  45  68 W8        29.98R
WAHPETON ARPT  CLOUDY    54  43  66 NW3       30.01R
$$

 *****  WEATHER ACROSS CENTRAL AND WESTERN NORTH DAKOTA  *****

CITY           SKY/WX    TMP DP  RH WIND       PRES   REMARKS
JAMESTOWN      PTCLDY    55  38  52 NW17      30.05R
BISMARCK       CLEAR     55  35  47 NW12      30.16R
MINOT          CLEAR     55  35  47 W16       30.11R
MINOT AFB      CLEAR     52  36  54 NW14      30.10R
GARRISON         N/A     49  35  58 NW12      30.14R
WILLISTON      CLEAR     53  33  46 NW10      30.19R
DICKINSON      CLEAR     47  35  63 W9        30.20R
HETTINGER      CLEAR     42  35  76 W5        30.25R
$$

 *****  OTHER OBSERVATIONS NORTHEAST NORTH DAKOTA  *****

CITY           SKY/WX    TMP DP  RH WIND       PRES   REMARKS
WALHALLA       FAIR      55  50  82 NW9G16    29.92R
LANGDON        MOCLDY    54  41  62 NW20G25   29.96R
CAVALIER       CLOUDY    55  46  71 NW12      29.91R
GRAFTON        MOCLDY    55  48  76 W16       29.94R
CANDO          FAIR      50  36  57 NW12      30.05R
FORT TOTTEN      N/A     56  38  51 NW9       29.95S
ROLLA          FAIR      52  32  46 NW21G32   30.03R
RUGBY          FAIR      50  36  57 NW10      30.06R
 ***** THE ABOVE OBSERVATIONS ARE NON NWS ARE NOT QUALITY
        CONTROLLED AND MAY MIS-REPORT RAIN FOR SNOW...
$$

 *****  OTHER OBSERVATIONS SOUTHEAST NORTH DAKOTA *****

CITY           SKY/WX    TMP DP  RH WIND       PRES   REMARKS
COOPERSTOWN    FAIR      55  39  54 NW15      30.01R
VALLEY CITY    FAIR      55  36  47 NW17G24   30.04R
OAKES          NOT AVBL
GWINNER        FAIR      55  37  50 W13       30.05R
SHEYENNE NWR     N/A     57  37  47 NW10      29.95
BUFFALO        NOT AVBL
WYNDMERE       NOT AVBL
 ***** THE ABOVE OBSERVATIONS ARE NON NWS ARE NOT QUALITY
       CONTROLLED AND MAY MIS-REPORT RAIN FOR SNOW...
$$

  *****  WEATHER ACROSS NORTHERN MINNESOTA  *****

CITY           SKY/WX    TMP DP  RH WIND       PRES   REMARKS
FLAG ISLAND    LGT RAIN  54  52  94 NW21G28   29.71R
WARROAD        RAIN      50  46  87 W18       29.77R
ROSEAU         RAIN      52  46  82 NW20G25   29.80R
HALLOCK        LGT RAIN  52  50  93 NW12G17   29.89R
THF RVR FALLS  LGT RAIN  50  48  93 W20       29.90R
HALSTAD          N/A     55  46  73 W14G25      N/A
FOSSTON        HVY RAIN  46  45  93 W18G29    29.92R
BAUDETTE       LGT RAIN  51  50  96 W21G30    29.73R FOG
WASKISH        DRIZZLE   52  50  93 W21G30    29.78R
CROOKSTON      LGT RAIN  50  48  93 NW24G33   29.93S
$$
  *****  WEATHER ACROSS CENTRAL AND WEST MINNESOTA  *****

CITY           SKY/WX    TMP DP  RH WIND       PRES   REMARKS
BEMIDJI        DRIZZLE   49  47  94 W23G31    29.85S
PARK RAPIDS    LGT RAIN  50  43  77 NW21G29   29.92R
WADENA         RAIN      52  43  71 W16G30    29.96R
DETROIT LAKES  DRIZZLE   50  46  87 NW15      29.97S
MOORHEAD       DRIZZLE   54  46  76 W7        29.99S
FERGUS FALLS   LGT RAIN  52  46  82 NW14      30.03R
ELBOW LAKE     LGT RAIN  55  45  69 N10       30.01R
MORRIS MN      CLEAR     54  39  58 W10       30.01R
STAPLES        DRIZZLE   52  43  71 W22G36    29.95R
WHEATON        NOT AVBL
$$
  *****  WEATHER ELSEWHERE ACROSS MINNESOTA  *****

CITY           SKY/WX    TMP DP  RH WIND       PRES   REMARKS
DULUTH         CLOUDY    54  51  90 W15G25    29.80R
INTRNTL FALLS  CLOUDY    53  51  93 W13G22    29.69F FOG
ELY            CLOUDY    54  52  94 W12G20    29.73S
CLOQUET        CLOUDY    54  48  82 W8        29.83R
BRAINERD       CLOUDY    53  44  71 W23G32    29.92R
HIBBING        CLOUDY    52  47  83 W10G22    29.78S
ALEXANDRIA     CLOUDY    54  45  71 NW13      30.02R
SAINT CLOUD    CLEAR     54  44  69 W10       29.97R
MINNEAPOLIS    PTCLDY    58  46  64 W12       29.98R
$$

  *****  WEATHER ACROSS SOUTH DAKOTA  *****

CITY           SKY/WX    TMP DP  RH WIND       PRES   REMARKS
SIOUX FALLS    PTCLDY    54  40  59 W7        30.16R
BROOKINGS      PTCLDY    51  39  63 W8        30.13R
WATERTOWN      CLEAR     56  36  47 W10       30.10R
HURON          CLEAR     49  36  61 W7        30.16R
SISSETON         N/A     56  37  49 NW13      30.04R
ABERDEEN       CLEAR     56  34  43 W12       30.12R
MITCHELL       CLEAR     56  34  43 W8        30.18R
PIERRE         CLEAR     53  32  44 W7        30.22R
MOBRIDGE       CLEAR     57  32  38 NW9       30.17R
RAPID CITY     CLEAR     49  34  56 NW10      30.31R
$$

  *****  SOME WEATHER IN NEARBY STATES *****

CITY           SKY/WX    TMP DP  RH WIND       PRES   REMARKS
GLASGOW MT     CLEAR     55  38  52 W10       30.21F
GREAT FALLS MT CLEAR     56  40  55 W7        30.31R
CHEYENNE WY    CLEAR     54  31  41 NW5       30.43R
SCOTTSBLUFF NE CLEAR     51  39  63 MISG      30.36R
OMAHA NE       CLEAR     58  44  60 NW10      30.19R
DES MOINES IA  CLEAR     59  50  72 W5        30.12R
DAVENPORT IA   CLOUDY    65  51  60 W12G20    30.05R
CHICAGO IL     MOCLDY    75  67  76 W14       29.92R
EAU CLAIRE WI  CLOUDY    59  52  77 W12       29.93R
LA CROSSE WI   CLOUDY    63  53  70 W16       29.97R
$$

  *****  SOME NATIONAL WEATHER *****

CITY           SKY/WX    TMP DP  RH WIND       PRES   REMARKS
LA GUARDIA NY  PTCLDY    67  38  34 NE6       30.17R
RALEIGH NC     CLOUDY    70  64  81 E6        30.16R
ATLANTA GA     PTCLDY    82  64  54 SE6       30.06R
NEW ORLEANS LA PTCLDY    82  73  74 SW3       30.01R
OKLAHOMA CITY  LGT RAIN  64  55  72 N12       30.19R
ALBUQUERQUE NM MOCLDY    67  36  31 E20       30.33R
SALT LAKE CITY CLEAR     60  45  57 W5        30.41S
LOS ANGELES CA CLEAR     78  52  40 W12       29.88S
BOISE ID       CLEAR     69  33  26 W5        30.35F
SEATTLE WA     MOCLDY    69  49  48 N12       30.29F
$$

*** WEATHER ACROSS MANITOBA...SASKATCHEWAN AND ONTARIO ***
                ***ONTARIO***

CITY           SKY/WX    TMP DP  RH WIND       PRES   REMARKS
GERALDTON      LGT RAIN  55  54  94 SE10G18   29.75F FOG
THUNDER BAY    PTCLDY    59  55  88 SW5       29.68F
SIOUX LOOKOUT  CLOUDY    54  54 100 S5        29.60S
TORONTO        PTCLDY    55  41  58 NE5       30.15F
BIG TROUT LK   CLOUDY    55  54  94 SE14G25   29.60F
PICKLE LAKE    LGT RAIN  57  57 100 SE7       29.59F
DRYDEN         CLOUDY    55  54  94 SW10      29.59F
KENORA         LGT RAIN  52  50  93 NW14G26   29.66R
$$
                *** MANITOBA***

CITY           SKY/WX    TMP DP  RH WIND       PRES   REMARKS
BRANDON        PTCLDY    48  37  66 W9        29.99R
DAUPHIN        PTCLDY    50  39  66 W10       29.95R
ISLAND LAKE    NOT AVBL
PILOT MOUND      N/A     52  37  58 NW15G21     N/A
THE PAS        PTCLDY    54  37  54 NW23      29.91R
THOMPSON       LGT RAIN  50  48  93 NW7       29.73R
WINNIPEG       MOCLDY    54  48  82 NW15      29.85R
LYNN LAKE      CLOUDY    50  45  81 NW17G23   29.83F
CHURCHILL      LGT RAIN  46  46 100 S3        29.62R FOG
GILLAM         HVY RAIN  50  48  93 N14       29.59S
$$
                ***SASKATCHEWAN***

CITY           SKY/WX    TMP DP  RH WIND       PRES   REMARKS
ESTEVAN        PTCLDY    48  34  57 W10       30.15R
KINDERSLEY     PTCLDY    52  39  62 N5        30.18S
LLOYDMINSTER   CLEAR     46  34  61 W7        30.16S
PRINCE ALBERT  CLEAR     48  34  57 W8        30.07R
REGINA         MOCLDY    46  36  66 W6        30.15S
YORKTON        CLEAR     46  36  66 W12       30.04R   C1F1C2F2C3F3C4F4C5F5C6F6C7F7C8F8C9F9CaFaCbFbCcFcCdFdCe!


USA.gov is the U.S. government's official web portal to all federal, state and local government web resources and services.